Location: Albany
(35.0000°S, 118.0000°E)
Time: 00:04:13
(UTC-05:00)

Amateur Radio Satellites - All Passes

Search period start: 17 December 2017 23:34
Search period end: 18 December 2017 23:34
Location: Albany, 35.0000°S, 118.0000°E

Satellite Date Start Highest point End Downlink Frequencies (MHz)
Time Altitude Azimuth
EO-79 17 Dec 23:37:38 23:41:42 41° 253° (WSW) 23:45:41 145.935-145.965
DX 1 17 Dec 23:51:55 23:56:05 47° 107° (ESE) 00:00:18 434.975-435.025
50 SAT 17 Dec 23:56:13 23:59:18 50° 105° (ESE) 00:02:26 437.505
Oscar 19 17 Dec 23:56:59 00:01:23 28° 84° (E) 00:05:44 437.125/150
FALCONSAT 3 17 Dec 23:59:14 00:02:49 46° 340° (NNW) 00:06:23 435.103
POLYITAN 1 18 Dec 00:02:16 00:05:36 22° 249° (WSW) 00:08:53 437.675
DUCHIFAT 1 18 Dec 00:28:07 00:30:35 15° 247° (WSW) 00:33:03 145.980
QB50P2 18 Dec 00:30:59 00:31:20 10° 244° (WSW) 00:31:41 145.880/145.840
AO-91 18 Dec 00:35:00 00:40:29 81° 78° (ENE) 00:45:51 145.960
YUBILEINY 18 Dec 00:36:51 00:43:57 29° 96° (E) 00:51:02 435.215
BUGSAT 1 18 Dec 00:52:59 00:56:48 32° 252° (WSW) 01:00:32 437.445
BEESAT 18 Dec 00:53:26 00:56:57 20° 113° (ESE) 01:00:28 436.000
UKube-1 18 Dec 01:04:29 01:08:32 39° 279° (W) 01:12:38 .
Gurwin Techsat 1B 18 Dec 01:07:10 01:12:35 81° 255° (WSW) 01:17:55 435.225
PCSat 18 Dec 01:13:02 01:17:00 20° 128° (SE) 01:20:57 145.827
JUGNU 18 Dec 01:18:19 01:21:48 16° 9° (N) 01:25:16 437.505
ITUPSAT 1 18 Dec 01:23:07 01:27:37 40° 109° (ESE) 01:32:11 437.325
DX 1 18 Dec 01:30:35 01:32:28 13° 273° (W) 01:34:21 434.975-435.025
CUBESAT XI-V 18 Dec 01:34:00 01:37:05 18° 113° (ESE) 01:40:09 437.345
MOZHAYETS 4 18 Dec 01:36:02 01:40:42 85° 103° (ESE) 01:45:26
Oscar 19 18 Dec 01:36:09 01:40:36 30° 249° (WSW) 01:45:01 437.125/150
FALCONSAT 3 18 Dec 01:39:51 01:41:25 12° 328° (NNW) 01:42:59 435.103
AO-91 18 Dec 02:13:54 02:16:07 13° 243° (WSW) 02:18:21 145.960
BEESAT 18 Dec 02:29:58 02:34:24 37° 278° (W) 02:38:54 436.000
YUBILEINY 18 Dec 02:31:44 02:40:11 53° 259° (W) 02:48:43 435.215
AO-7 18 Dec 02:33:24 02:41:44 68° 75° (ENE) 02:49:59 .
BEESAT 3 18 Dec 02:45:52 02:49:20 29° 124° (SE) 02:52:47 437.485
PCSat 18 Dec 02:55:25 03:00:42 53° 292° (WNW) 03:05:56 145.827
ITAMSAT 1 18 Dec 02:55:35 03:00:55 81° 77° (ENE) 03:06:10 435.822/435.867
KKS-1 18 Dec 02:59:17 03:03:00 27° 110° (ESE) 03:06:47 437.445
M-CUBED/EXP-1 PRIME 18 Dec 03:02:12 03:05:49 80° 253° (WSW) 03:09:39 437.505
ITUPSAT 1 18 Dec 03:02:17 03:05:33 18° 274° (W) 03:08:51 437.325
NO-84 18 Dec 03:02:29 03:05:59 25° 55° (NE) 03:09:25 435.350 FM
JUGNU 18 Dec 03:06:06 03:10:06 18° 358° (N) 03:14:05 437.505
CUBESAT XI-V 18 Dec 03:09:43 03:14:05 40° 278° (W) 03:18:29 437.345
STARS 18 Dec 03:31:36 03:35:05 23° 111° (ESE) 03:38:36 437.465
BEESAT 2 18 Dec 03:35:11 03:38:33 27° 126° (SE) 03:41:55 435.950
SRMSAT 18 Dec 04:01:24 04:04:33 15° 10° (N) 04:07:42 437.500
AO-85 18 Dec 04:04:19 04:07:04 16° 133° (SE) 04:09:42 145.980
DOVE 4 18 Dec 04:07:52 04:13:02 86° 257° (WSW) 04:18:20 437.250
XW-2D 18 Dec 04:08:53 04:10:21 12° 87° (E) 04:11:48 145.860 - 145.880
XW-2B 18 Dec 04:23:50 04:26:30 18° 85° (E) 04:29:08 145.730 - 145.750
BEESAT 3 18 Dec 04:23:55 04:26:36 18° 290° (WNW) 04:29:17 437.485
AO-7 18 Dec 04:27:23 04:33:45 25° 238° (WSW) 04:40:06 .
XW-2F 18 Dec 04:32:10 04:35:08 22° 84° (E) 04:38:04 145.980 - 146.000
KKS-1 18 Dec 04:35:53 04:39:28 24° 276° (W) 04:43:06 437.445
ITAMSAT 1 18 Dec 04:37:58 04:39:37 11° 241° (WSW) 04:41:15 435.822/435.867
NO-84 18 Dec 04:39:14 04:43:10 36° 222° (SW) 04:46:58 435.350 FM
CUTE-I 18 Dec 04:48:59 04:53:52 33° 83° (E) 04:58:42 437.470
XW-2C 18 Dec 04:50:40 04:54:19 42° 81° (E) 04:57:54 145.795 - 145.815
JUGNU 18 Dec 04:55:28 04:58:23 14° 348° (NNW) 05:01:17 437.505
HO-68 18 Dec 04:56:25 05:01:29 20° 87° (E) 05:06:29 435.675
STRAND 1 18 Dec 05:04:51 05:09:14 29° 111° (ESE) 05:13:40 437.568
STARS 18 Dec 05:07:30 05:11:14 27° 277° (W) 05:15:02 437.465
BEESAT 2 18 Dec 05:13:12 05:16:03 20° 291° (WNW) 05:18:55 435.950
CUTE 1.7 + AOD 2 18 Dec 05:14:09 05:17:12 19° 86° (E) 05:20:14 437.475
O/OREOS (USA 219) 18 Dec 05:16:31 05:17:19 10° 83° (E) 05:18:07 437.305
NUDT-PHONESAT 18 Dec 05:28:02 05:31:46 89° 254° (WSW) 05:35:27 437.300
LilacSat-2 18 Dec 05:32:04 05:35:44 45° 255° (WSW) 05:39:22 437.200
KAITUO 1B 18 Dec 05:38:51 05:42:34 58° 255° (WSW) 05:46:14 145.475/437.950
XW-2D 18 Dec 05:41:07 05:44:38 35° 254° (WSW) 05:48:06 145.860 - 145.880
AO-85 18 Dec 05:43:40 05:47:46 44° 294° (WNW) 05:51:36 145.980
SRMSAT 18 Dec 05:49:03 05:52:59 18° 360° (N) 05:56:55 437.500
XW-2B 18 Dec 05:57:31 06:00:36 24° 251° (WSW) 06:03:40 145.730 - 145.750
XW-2F 18 Dec 06:06:17 06:09:04 20° 250° (WSW) 06:11:50 145.980 - 146.000
SEEDS 18 Dec 06:18:02 06:22:16 67° 79° (E) 06:26:27 437.485
AAUSAT CUBESAT 2 18 Dec 06:25:06 06:28:51 31° 83° (E) 06:32:33 437.432
FO-29 18 Dec 06:25:10 06:30:11 47° 108° (ESE) 06:35:14 435.910
XW-2C 18 Dec 06:27:03 06:28:01 11° 247° (WSW) 06:29:00 145.795 - 145.815
CUTE-I 18 Dec 06:29:12 06:33:43 27° 248° (WSW) 06:38:12 437.470
UWE-3 18 Dec 06:33:11 06:37:35 53° 81° (E) 06:41:47 435.000/436.395/437.385
XW-2A 18 Dec 06:34:57 06:38:08 37° 81° (E) 06:41:16 145.665 - 145.685
CUBEBUG 2 18 Dec 06:41:44 06:46:20 64° 256° (WSW) 06:50:43 437.445
HO-68 18 Dec 06:42:27 06:49:38 66° 251° (WSW) 06:56:45 435.675
STRAND 1 18 Dec 06:43:53 06:48:17 29° 277° (W) 06:52:46 437.568
CUTE 1.7 + AOD 2 18 Dec 06:49:18 06:53:01 29° 252° (WSW) 06:56:41 437.475
ZACube-1 18 Dec 06:49:25 06:53:31 39° 82° (E) 06:57:29 437.345
O/OREOS (USA 219) 18 Dec 06:51:40 06:56:06 57° 248° (WSW) 07:00:37 437.305
Oscar 11 18 Dec 07:02:03 07:05:54 30° 83° (E) 07:09:42 .
AO-73 18 Dec 07:20:40 07:25:02 84° 78° (ENE) 07:29:14 145.935
nSIGHT-1 18 Dec 07:21:55 07:23:22 12° 53° (NE) 07:24:49 .
TIGRISAT 18 Dec 07:23:05 07:26:47 23° 111° (ESE) 07:30:31 435.000
UNISAT 6 18 Dec 07:27:08 07:31:07 28° 110° (ESE) 07:35:10 437.425
SRMSAT 18 Dec 07:38:16 07:41:25 15° 350° (N) 07:44:33 437.500
AAUSAT CUBESAT 2 18 Dec 08:01:11 08:04:00 18° 249° (WSW) 08:06:50 437.432
EO-88 18 Dec 08:04:56 08:05:35 10° 88° (E) 08:06:14 145.990 - 145.960
UWE-3 18 Dec 08:11:39 08:13:27 12° 245° (WSW) 08:15:14 435.000/436.395/437.385
FO-29 18 Dec 08:12:30 08:15:36 16° 273° (W) 08:18:42 435.910
ISS 18 Dec 08:16:34 08:19:39 39° 47° (NE) 08:22:47 437.550
DELFI C3 18 Dec 08:23:49 08:27:46 50° 81° (E) 08:31:40 145.870
ZACube-1 18 Dec 08:26:52 08:29:23 15° 247° (WSW) 08:31:51 437.345
PRISM 18 Dec 08:27:46 08:31:25 32° 108° (ESE) 08:35:07 437.425
HO-68 18 Dec 08:34:48 08:35:57 10° 234° (SW) 08:37:07 435.675
Oscar 11 18 Dec 08:38:38 08:41:47 20° 249° (WSW) 08:44:55 .
nSIGHT-1 18 Dec 08:56:07 08:59:14 46° 219° (SW) 09:02:23 .
TIGRISAT 18 Dec 08:59:07 09:03:13 31° 277° (W) 09:07:26 435.000
UNISAT 6 18 Dec 09:03:53 09:07:43 25° 275° (W) 09:11:38 437.425
AIST 2D 18 Dec 09:16:32 09:19:50 39° 105° (ESE) 09:23:10 435.315
POLYITAN 1 18 Dec 09:16:45 09:19:00 14° 114° (ESE) 09:21:13 437.675
Max Valier Satellite 18 Dec 09:17:35 09:21:08 43° 255° (WSW) 09:24:38 145.860
EO-88 18 Dec 09:35:55 09:39:21 37° 254° (WSW) 09:42:45 145.990 - 145.960
DUCHIFAT 1 18 Dec 09:40:12 09:43:16 19° 111° (ESE) 09:46:22 145.980
QB50P2 18 Dec 09:41:04 09:44:49 29° 109° (ESE) 09:48:36 145.880/145.840
ESTCUBE 1 18 Dec 09:46:11 09:49:36 21° 85° (E) 09:52:59 437.505/2401.250
LO-87 18 Dec 09:53:16 09:56:34 31° 83° (E) 09:59:49 145.935 - 145.965
ISS 18 Dec 09:53:43 09:56:15 20° 212° (SSW) 09:58:47 437.550
DELFI C3 18 Dec 10:01:04 10:02:00 11° 246° (WSW) 10:02:56 145.870
PRISM 18 Dec 10:04:14 10:06:44 16° 274° (W) 10:09:15 437.425
NANOSAT C BR1 18 Dec 10:07:50 10:11:57 47° 106° (ESE) 10:16:07 145.865
EO-79 18 Dec 10:25:47 10:30:05 89° 281° (W) 10:34:27 145.935-145.965
Gurwin Techsat 1B 18 Dec 10:48:26 10:50:53 13° 118° (ESE) 10:53:20 435.225
POLYITAN 1 18 Dec 10:50:11 10:54:18 45° 279° (W) 10:58:30 437.675
YUBILEINY 18 Dec 10:54:47 10:55:50 10° 119° (ESE) 10:56:52 435.215
VELOX 1 18 Dec 11:01:31 11:04:42 19° 85° (E) 11:07:50 145.980
SPROUT 18 Dec 11:09:20 11:13:27 40° 81° (E) 11:17:30 437.525
Oscar 19 18 Dec 11:10:32 11:15:01 30° 111° (ESE) 11:19:31 437.125/150
DUCHIFAT 1 18 Dec 11:14:54 11:18:41 30° 277° (W) 11:22:30 145.980
NO-84 18 Dec 11:15:18 11:18:19 29° 140° (SE) 11:21:08 435.350 FM
QB50P2 18 Dec 11:17:25 11:20:34 20° 275° (W) 11:23:45 145.880/145.840
ESTCUBE 1 18 Dec 11:22:23 11:26:22 31° 251° (WSW) 11:30:19 437.505/2401.250
LO-87 18 Dec 11:27:51 11:29:37 13° 248° (WSW) 11:31:22 145.935 - 145.965
AO-91 18 Dec 11:29:06 11:32:48 38° 109° (ESE) 11:36:57 145.960
BUGSAT 1 18 Dec 11:38:11 11:42:24 76° 282° (WNW) 11:46:43 437.445
AO-7 18 Dec 11:41:49 11:45:22 13° 129° (SE) 11:48:54 .
RS-15 18 Dec 11:42:34 11:51:57 35° 74° (ENE) 12:01:21 29.354- 29.394
DX 1 18 Dec 11:46:08 11:46:56 10° 88° (E) 11:47:45 434.975-435.025
NANOSAT C BR1 18 Dec 11:46:12 11:47:52 12° 272° (W) 11:49:32 145.865
Gurwin Techsat 1B 18 Dec 12:24:50 12:30:08 71° 282° (WNW) 12:35:32 435.225
VELOX 1 18 Dec 12:37:05 12:41:09 34° 251° (WSW) 12:45:11 145.980
YUBILEINY 18 Dec 12:45:34 12:54:22 68° 99° (E) 13:03:05 435.215
SPROUT 18 Dec 12:46:26 12:48:56 15° 247° (WSW) 12:51:25 437.525
50 SAT 18 Dec 12:46:49 12:50:04 67° 78° (ENE) 12:53:14 437.505
Oscar 19 18 Dec 12:49:48 12:54:14 28° 276° (W) 12:58:42 437.125/150
NO-84 18 Dec 12:53:09 12:55:18 17° 302° (WNW) 12:57:22 435.350 FM
UKube-1 18 Dec 12:54:22 12:58:32 41° 81° (E) 13:02:39 .
SO-50 18 Dec 13:00:55 13:05:40 63° 64° (ENE) 13:10:27 436.795
AO-91 18 Dec 13:07:28 13:09:32 14° 270° (W) 13:11:44 145.960
DX 1 18 Dec 13:19:03 13:23:25 57° 254° (WSW) 13:27:44 434.975-435.025
AO-7 18 Dec 13:28:18 13:36:36 69° 111° (ESE) 13:44:56 .
ITUPSAT 1 18 Dec 13:28:35 13:30:54 13° 88° (E) 13:33:11 437.325
MOZHAYETS 4 18 Dec 13:34:57 13:38:46 25° 84° (E) 13:42:32
M-CUBED/EXP-1 PRIME 18 Dec 13:44:59 13:48:30 68° 108° (ESE) 13:51:52 437.505
RS-15 18 Dec 13:52:59 14:03:38 58° 235° (SW) 14:14:30 29.354- 29.394
ITAMSAT 1 18 Dec 14:10:06 14:15:18 88° 104° (ESE) 14:20:36 435.822/435.867
UKube-1 18 Dec 14:31:37 14:34:08 15° 246° (WSW) 14:36:39 .
BEESAT 18 Dec 14:32:49 14:37:40 72° 78° (ENE) 14:42:26 436.000
SO-50 18 Dec 14:43:38 14:46:33 16° 227° (SW) 14:49:28 436.795
YUBILEINY 18 Dec 14:44:02 14:50:16 22° 262° (W) 14:56:30 435.215
ISS 18 Dec 14:47:38 14:49:42 15° 151° (SSE) 14:51:45 437.550
ITUPSAT 1 18 Dec 15:04:16 15:08:59 53° 253° (WSW) 15:13:39 437.325
CUBESAT XI-V 18 Dec 15:09:02 15:13:41 64° 79° (E) 15:18:16 437.345
DOVE 4 18 Dec 15:10:17 15:14:25 62° 105° (ESE) 15:18:48 437.250
MOZHAYETS 4 18 Dec 15:11:58 15:15:48 26° 250° (WSW) 15:19:36
AO-7 18 Dec 15:23:44 15:29:50 22° 275° (W) 15:36:02 .
nSIGHT-1 18 Dec 15:25:24 15:28:29 38° 142° (SE) 15:31:32 .
HO-68 18 Dec 15:25:58 15:27:27 11° 126° (SE) 15:28:57 435.675
O/OREOS (USA 219) 18 Dec 15:27:15 15:29:44 14° 122° (ESE) 15:32:13 437.305
XW-2C 18 Dec 15:29:58 15:31:55 14° 112° (ESE) 15:33:53 145.795 - 145.815
PCSat 18 Dec 15:50:51 15:55:36 32° 72° (ENE) 16:00:22 145.827
NUDT-PHONESAT 18 Dec 16:03:52 16:06:51 23° 108° (ESE) 16:09:52 437.300
CUTE-I 18 Dec 16:07:27 16:12:23 39° 110° (ESE) 16:17:22 437.470
LilacSat-2 18 Dec 16:10:03 16:13:46 49° 105° (ESE) 16:17:30 437.200
RS-15 18 Dec 16:12:26 16:19:08 17° 206° (SSW) 16:26:00 29.354- 29.394
BEESAT 18 Dec 16:13:30 16:14:45 11° 243° (WSW) 16:16:00 436.000
KAITUO 1B 18 Dec 16:15:08 16:18:33 34° 106° (ESE) 16:22:00 145.475/437.950
XW-2D 18 Dec 16:18:11 16:21:56 60° 104° (ESE) 16:25:44 145.860 - 145.880
ISS 18 Dec 16:23:10 16:26:28 63° 314° (NW) 16:29:44 437.550
KKS-1 18 Dec 16:28:50 16:33:25 84° 79° (E) 16:37:56 437.445
XW-2B 18 Dec 16:34:10 16:37:59 85° 282° (WNW) 16:41:51 145.730 - 145.750
XW-2F 18 Dec 16:42:16 16:46:03 70° 280° (W) 16:49:51 145.980 - 146.000
CUBESAT XI-V 18 Dec 16:48:58 16:50:27 11° 245° (WSW) 16:51:53 437.345
STARS 18 Dec 16:59:07 17:03:37 69° 78° (ENE) 17:08:03 437.465
XW-2C 18 Dec 17:02:16 17:05:45 34° 278° (W) 17:09:16 145.795 - 145.815
nSIGHT-1 18 Dec 17:02:26 17:04:25 15° 308° (NW) 17:06:24 .
O/OREOS (USA 219) 18 Dec 17:04:56 17:09:28 52° 286° (WNW) 17:13:57 437.305
SEEDS 18 Dec 17:06:25 17:10:02 29° 108° (ESE) 17:13:42 437.485
HO-68 18 Dec 17:06:44 17:13:48 68° 108° (ESE) 17:20:59 435.675
AAUSAT CUBESAT 2 18 Dec 17:13:10 17:15:18 14° 113° (ESE) 17:17:26 437.432
STRAND 1 18 Dec 17:20:19 17:22:28 12° 89° (E) 17:24:37 437.568
UWE-3 18 Dec 17:26:22 17:30:26 30° 109° (ESE) 17:34:33 435.000/436.395/437.385
PCSat 18 Dec 17:34:10 17:38:55 31° 236° (SW) 17:43:43 145.827
CUBEBUG 2 18 Dec 17:35:21 17:40:01 69° 104° (ESE) 17:44:51 437.445
CUTE 1.7 + AOD 2 18 Dec 17:37:36 17:41:49 65° 280° (W) 17:46:05 437.475
NUDT-PHONESAT 18 Dec 17:38:00 17:40:36 18° 275° (W) 17:43:14 437.300
ZACube-1 18 Dec 17:41:49 17:45:24 23° 111° (ESE) 17:49:00 437.345
CUTE-I 18 Dec 17:48:26 17:52:30 22° 275° (W) 17:56:37 437.470
KAITUO 1B 18 Dec 17:51:06 17:52:36 12° 273° (W) 17:54:07 145.475/437.950
Oscar 11 18 Dec 17:54:25 17:57:08 16° 112° (ESE) 17:59:52 .
BEESAT 3 18 Dec 18:08:55 18:12:36 49° 238° (WSW) 18:16:19 437.485
AO-73 18 Dec 18:12:03 18:16:23 42° 107° (ESE) 18:20:45 145.935
AO-85 18 Dec 18:15:37 18:18:09 13° 73° (ENE) 18:20:41 145.980
FALCONSAT 3 18 Dec 18:28:35 18:31:42 26° 26° (NNE) 18:34:50 435.103
RS-15 18 Dec 18:33:59 18:38:34 13° 167° (SSE) 18:43:14 29.354- 29.394
XW-2A 18 Dec 18:34:33 18:37:51 46° 280° (W) 18:41:11 145.665 - 145.685
SEEDS 18 Dec 18:42:42 18:45:42 19° 274° (W) 18:48:42 437.485
AAUSAT CUBESAT 2 18 Dec 18:46:28 18:50:21 40° 278° (W) 18:54:16 437.432
STRAND 1 18 Dec 18:56:51 19:02:02 64° 254° (WSW) 19:07:08 437.568
HO-68 18 Dec 18:57:11 19:02:00 19° 273° (W) 19:06:53 435.675
BEESAT 2 18 Dec 18:59:55 19:03:41 52° 239° (WSW) 19:07:28 435.950
UWE-3 18 Dec 19:03:04 19:06:48 23° 275° (W) 19:10:35 435.000/436.395/437.385
DELFI C3 18 Dec 19:06:29 19:09:10 18° 111° (ESE) 19:11:53 145.870
ZACube-1 18 Dec 19:17:24 19:21:27 30° 276° (W) 19:25:32 437.345
FO-29 18 Dec 19:20:05 19:26:35 65° 78° (ENE) 19:33:50 435.910
Oscar 11 18 Dec 19:28:51 19:32:55 38° 278° (W) 19:37:01 .
AO-73 18 Dec 19:49:59 19:52:44 16° 273° (W) 19:55:30 145.935
Max Valier Satellite 18 Dec 19:52:24 19:55:59 43° 106° (ESE) 19:59:35 145.860
AO-85 18 Dec 19:52:42 19:58:04 71° 240° (WSW) 20:03:17 145.980
FALCONSAT 3 18 Dec 20:06:50 20:10:31 77° 11° (N) 20:14:15 435.103
EO-88 18 Dec 20:09:28 20:13:00 47° 105° (ESE) 20:16:35 145.990 - 145.960
DELFI C3 18 Dec 20:40:19 20:43:39 27° 277° (W) 20:47:04 145.870
ESTCUBE 1 18 Dec 20:43:37 20:45:51 14° 114° (ESE) 20:48:06 437.505/2401.250
RS-15 18 Dec 20:45:48 20:56:01 35° 135° (SE) 21:06:36 29.354- 29.394
TIGRISAT 18 Dec 20:53:23 20:58:01 75° 78° (ENE) 21:02:27 435.000
UNISAT 6 18 Dec 20:57:58 21:02:37 88° 260° (W) 21:07:04 437.425
FO-29 18 Dec 21:06:36 21:11:11 21° 246° (WSW) 21:16:06 435.910
SO-50 18 Dec 21:36:04 21:39:50 24° 129° (SE) 21:43:30 436.795
AO-85 18 Dec 21:38:10 21:39:20 11° 223° (SW) 21:40:29 145.980
FALCONSAT 3 18 Dec 21:45:56 21:49:39 84° 177° (S) 21:53:23 435.103
PRISM 18 Dec 21:46:33 21:50:47 88° 74° (ENE) 21:54:58 437.425
VELOX 1 18 Dec 21:57:11 21:58:40 12° 115° (ESE) 22:00:09 145.980
LO-87 18 Dec 21:58:13 22:01:46 52° 280° (W) 22:05:24 145.935 - 145.965
SPROUT 18 Dec 21:59:42 22:02:56 21° 111° (ESE) 22:06:11 437.525
EO-79 18 Dec 22:14:37 22:17:41 19° 86° (E) 22:20:42 145.935-145.965
AIST 2D 18 Dec 22:17:04 22:20:37 80° 78° (ENE) 22:24:07 435.315
ESTCUBE 1 18 Dec 22:17:47 22:22:10 50° 280° (W) 22:26:35 437.505/2401.250
POLYITAN 1 18 Dec 22:38:12 22:42:11 36° 82° (E) 22:46:04 437.675
RS-15 18 Dec 22:57:46 23:09:13 69° 293° (WNW) 23:21:10 29.354- 29.394
DUCHIFAT 1 18 Dec 23:01:27 23:05:38 52° 80° (E) 23:09:45 145.980
QB50P2 18 Dec 23:04:02 23:08:23 87° 78° (ENE) 23:12:38 145.880/145.840
50 SAT 18 Dec 23:11:43 23:12:19 10° 112° (ESE) 23:12:55 437.505
SO-50 18 Dec 23:16:11 23:20:18 33° 292° (WNW) 23:24:20 436.795
AO-91 18 Dec 23:22:59 23:26:01 15° 89° (E) 23:29:00 145.960
BUGSAT 1 18 Dec 23:24:03 23:27:09 20° 85° (E) 23:30:12 437.445
FALCONSAT 3 18 Dec 23:25:04 23:28:41 49° 341° (NNW) 23:32:17 435.103
Oscar 19 18 Dec 23:26:59 23:29:17 13° 88° (E) 23:31:34 437.125/150
